K5KTF-WX Weather Reports


Display with metric or nautical units.
time (UTC)temp
F
wind
direction
speed
MPH
gust
MPH
rain 1hr
in
rain 24hr
in
rain mn
in
humidity
%
barometer
mb
20260510011537 82 0 0.0 2.0 0.00 0.00 0.00 63 1009.0
20260510010036 83 0 0.0 3.0 0.00 0.00 0.00 59 1009.0
20260510004542 84 129 0.0 4.0 0.00 0.00 0.00 58 1008.9
20260510003039 85 0 0.0 3.0 0.00 0.00 0.00 57 1008.6
20260510001537 85 0 1.0 4.0 0.00 0.00 0.00 55 1008.6
20260510000038 86 134 0.0 5.0 0.00 0.00 0.00 53 1008.4
20260509234538 87 0 0.0 4.0 0.00 0.00 0.00 52 1008.3
20260509233037 88 88 0.0 6.0 0.00 0.00 0.00 50 1008.3
20260509231540 88 142 0.0 5.0 0.00 0.00 0.00 50 1008.2
20260509230038 89 163 1.0 7.0 0.00 0.00 0.00 48 1008.2
20260509224540 89 56 1.0 6.0 0.00 0.00 0.00 47 1008.2
20260509223038 90 0 0.0 2.0 0.00 0.00 0.00 49 1008.2
20260509221542 91 0 0.0 5.0 0.00 0.00 0.00 48 1008.2
20260509220041 90 124 1.0 5.0 0.00 0.00 0.00 51 1008.2
20260509214542 90 0 0.0 3.0 0.00 0.00 0.00 53 1008.4
20260509213038 90 92 1.0 5.0 0.00 0.00 0.00 52 1008.5
20260509211544 89 90 1.0 7.0 0.00 0.00 0.00 51 1008.7
20260509210038 88 102 2.0 7.0 0.00 0.00 0.00 53 1008.9
20260509204540 88 58 2.0 7.0 0.00 0.00 0.00 57 1009.1
20260509203058 88 65 2.0 8.0 0.00 0.00 0.00 50 1009.3
20260509201539 87 75 4.0 11.0 0.00 0.00 0.00 52 1009.7
20260509200047 91 0 0.0 0.0 0.00 0.00 0.00 52 1009.9
20260509194540 90 0 0.0 2.0 0.00 0.00 0.00 55 1009.7
20260509193037 91 0 0.0 1.0 0.00 0.00 0.00 50 1009.7
20260509191544 90 0 0.0 1.0 0.00 0.00 0.00 52 1009.7
20260509190038 88 0 0.0 0.0 0.00 0.00 0.00 57 1010.0
20260509184538 89 0 0.0 0.0 0.00 0.00 0.00 57 1010.4
20260509183038 87 0 0.0 1.0 0.00 0.00 0.00 59 1010.5
20260509181540 88 0 0.0 1.0 0.00 0.00 0.00 61 1010.6
20260509180037 87 0 0.0 1.0 0.00 0.00 0.00 66 1010.9
20260509174534 84 221 0.0 0.0 0.00 0.00 0.00 69 1011.1
20260509173040 86 0 0.0 1.0 0.00 0.00 0.00 67 1011.3
20260509171537 85 0 0.0 1.0 0.00 0.00 0.00 70 1011.7
20260509170037 84 0 0.0 1.0 0.00 0.00 0.00 74 1011.7
20260509164536 82 0 0.0 1.0 0.00 0.00 0.00 77 1011.6
20260509163040 80 9 0.0 2.0 0.00 0.00 0.00 82 1011.6
20260509161537 79 0 0.0 1.0 0.00 0.00 0.00 84 1011.7
20260509160039 76 0 0.0 5.0 0.00 0.00 0.00 87 1011.8
20260509154537 76 176 0.0 2.0 0.00 0.00 0.00 87 1011.9
20260509153038 77 0 0.0 2.0 0.00 0.00 0.00 86 1011.6
20260509151537 78 190 0.0 2.0 0.00 0.00 0.00 86 1011.2
20260509150041 80 0 0.0 1.0 0.00 0.00 0.00 83 1010.9
20260509144541 80 0 0.0 1.0 0.00 0.00 0.00 82 1011.1
20260509143038 79 0 0.0 1.0 0.00 0.00 0.00 82 1010.8
20260509141537 78 0 0.0 4.0 0.00 0.00 0.00 86 1010.7
20260509140038 76 219 1.0 5.0 0.00 0.00 0.00 87 1010.0
20260509134543 76 0 0.0 6.0 0.00 0.00 0.00 90 1010.1
20260509133040 74 0 0.0 2.0 0.00 0.00 0.00 92 1010.2
20260509131545 72 0 0.0 5.0 0.00 0.00 0.00 95 1010.6
20260509130053 72 0 0.0 0.0 0.00 0.00 0.00 98 1010.6
20260509124542 71 0 0.0 0.0 0.00 0.00 0.00 98 1011.0
20260509123038 70 0 0.0 0.0 0.00 0.00 0.00 98 1010.8
20260509121538 70 0 0.0 0.0 0.00 0.00 0.00 98 1010.7
20260509120039 70 0 0.0 0.0 0.00 0.00 0.00 98 1010.9
20260509114540 70 0 0.0 0.0 0.00 0.00 0.00 97 1011.1
20260509113041 70 0 0.0 0.0 0.00 0.00 0.00 98 1011.2
20260509111542 70 0 0.0 0.0 0.00 0.00 0.00 98 1011.8
20260509110039 70 0 0.0 0.0 0.00 0.00 0.00 97 1011.9
20260509104538 71 0 0.0 0.0 0.00 0.00 0.00 97 1011.7
20260509103037 71 0 0.0 0.0 0.00 0.00 0.00 97 1012.0
20260509101540 71 0 0.0 0.0 0.00 0.00 0.00 97 1011.8
20260509100036 71 0 0.0 0.0 0.00 0.00 0.00 97 1011.4
20260509094538 71 0 0.0 0.0 0.00 0.00 0.00 97 1010.9
20260509093038 71 0 0.0 0.0 0.00 0.00 0.00 97 1010.4
20260509091537 71 0 0.0 0.0 0.00 0.00 0.00 97 1010.3
20260509090037 71 0 0.0 0.0 0.00 0.00 0.00 97 1010.3
20260509084538 71 0 0.0 0.0 0.00 0.00 0.00 97 1010.5
20260509083041 71 0 0.0 0.0 0.00 0.00 0.00 97 1010.7
20260509081540 71 0 0.0 0.0 0.00 0.00 0.00 96 1010.7
20260509080041 71 0 0.0 0.0 0.00 0.00 0.00 96 1010.9
20260509074537 71 0 0.0 0.0 0.00 0.00 0.00 96 1010.8
20260509073041 71 0 0.0 0.0 0.00 0.00 0.00 96 1010.8
20260509071538 71 0 0.0 0.0 0.00 0.00 0.00 95 1010.9
20260509070041 71 0 0.0 0.0 0.00 0.00 0.00 95 1011.2
20260509064538 71 0 0.0 0.0 0.00 0.00 0.00 95 1010.8
20260509063037 71 0 0.0 0.0 0.00 0.00 0.00 95 1011.0
20260509061548 71 0 0.0 1.0 0.00 0.00 0.00 95 1011.0
20260509060050 71 0 0.0 1.0 0.00 0.00 0.00 95 1010.5
20260509054547 71 0 0.0 1.0 0.00 0.00 0.00 96 1010.7
20260509053039 70 0 0.0 2.0 0.00 0.00 0.00 96 1010.1
20260509051538 70 0 0.0 3.0 0.00 0.00 0.00 96 1009.4
20260509050054 70 0 0.0 2.0 0.00 0.00 0.00 95 1009.4
20260509044552 70 146 0.0 2.0 0.00 0.00 0.00 94 1009.4
20260509043038 70 0 0.0 2.0 0.00 0.00 0.00 93 1010.0
20260509041538 71 161 0.0 1.0 0.00 0.00 0.00 93 1010.3
20260509040040 71 0 0.0 3.0 0.00 0.00 0.00 93 1010.3
20260509034542 71 0 0.0 1.0 0.00 0.00 0.00 93 1010.2
20260509033041 70 0 0.0 1.0 0.00 0.00 0.00 93 1009.8
20260509031546 71 0 0.0 1.0 0.00 0.00 0.00 92 1009.7
20260509030042 71 0 0.0 0.0 0.00 0.00 0.00 91 1009.7
20260509024535 72 0 0.0 1.0 0.00 0.00 0.00 90 1009.7
20260509023044 73 0 0.0 3.0 0.00 0.00 0.00 88 1009.5
20260509021537 73 0 0.0 3.0 0.00 0.00 0.00 87 1009.2
20260509020037 74 0 0.0 2.0 0.00 0.00 0.00 86 1008.9
20260509014539 74 0 0.0 2.0 0.00 0.00 0.00 85 1008.9
20260509013038 75 107 0.0 3.0 0.00 0.00 0.00 84 1008.7